Theta_e
309 314 316 312 311 312 309 308 309 308 310 313 314 316 314 314 315 314 314 310 304 308 314 313 314 313 311 309 305 304 307 306 306 306 306 307 307 307 308 307 307 306 305 305 304 302 301 300 299 298 299 298 297 296 296 294 292 290 287 286 287 286 286 286 286 286 286 286 286 285 285 284 283 283 283 282 281 281 280 280 280 280 280 280 280 280
310 313 312 308 307 307 305 305 307 307 309 311 312 316 315 313 315 312 311 311 305 306 315 312 312 313 311 309 305 304 305 305 305 306 306 307 307 308 308 307 308 306 306 306 304 302 301 300 299 299 299 298 297 296 295 294 292 290 287 286 286 286 286 286 285 285 285 285 285 284 284 284 283 283 282 282 282 281 280 280 280 280 279 279 279 279
312 313 310 306 304 304 305 305 308 310 312 312 312 314 314 311 313 313 310 311 307 307 316 315 311 312 310 308 305 303 304 306 306 306 307 307 307 308 308 307 308 307 306 306 304 303 301 300 300 299 299 298 297 296 295 294 292 290 287 286 286 286 286 285 285 285 285 285 284 284 284 283 283 282 282 282 281 281 281 280 280 279 279 279 279 279
314 312 307 304 302 306 310 307 309 315 314 312 313 313 313 309 310 315 312 310 309 307 311 314 310 311 311 313 312 306 304 305 306 306 306 307 307 308 308 308 308 307 307 307 305 303 301 300 300 299 299 298 297 296 294 294 293 290 287 286 286 286 285 285 285 285 285 285 284 284 284 283 283 282 282 282 281 281 280 280 279 279 279 279 279 279
312 308 304 305 307 310 312 310 313 319 315 313 314 311 312 311 308 312 311 308 312 308 307 311 314 319 320 320 319 310 305 305 305 306 307 306 307 308 308 308 308 308 307 307 305 304 302 301 300 299 299 299 297 296 294 294 293 290 287 286 286 286 285 285 285 285 285 285 284 284 284 284 283 283 282 282 281 281 280 280 279 279 279 279 279 278
311 305 305 312 316 315 313 312 311 312 315 317 314 310 308 309 308 310 310 309 318 316 307 308 316 326 325 320 318 313 310 310 306 305 307 307 307 308 309 308 308 308 307 307 306 304 303 301 300 300 299 298 297 296 295 294 293 291 288 286 285 285 285 285 285 285 285 285 284 284 284 284 283 283 282 282 281 281 280 280 279 279 278 278 278 278
309 305 306 312 315 313 312 312 307 307 318 319 310 308 308 308 307 310 309 309 318 316 305 307 315 318 320 320 318 313 315 317 309 305 305 307 308 308 308 309 308 308 307 307 306 305 303 301 300 300 299 298 297 296 295 294 293 292 289 286 285 285 285 285 284 284 285 284 284 284 283 283 283 282 282 281 281 280 280 280 279 279 279 278 278 278
309 310 310 311 312 312 312 313 309 307 316 315 308 308 309 307 306 308 309 308 312 311 307 310 312 311 317 321 315 309 315 321 316 312 307 305 308 308 308 309 308 309 308 307 307 305 304 302 300 300 299 298 297 295 294 294 293 292 291 287 285 285 284 284 284 284 284 284 284 283 283 282 282 282 281 281 280 280 280 280 279 279 278 278 278 278
306 313 312 311 313 314 313 311 309 307 312 312 305 304 306 305 307 307 308 310 310 310 312 315 311 311 319 321 314 310 315 320 321 321 312 306 308 309 309 309 309 309 309 308 307 305 304 302 300 300 299 298 296 295 295 294 293 293 292 288 285 284 284 284 284 284 284 284 284 283 282 282 282 282 281 281 280 280 280 280 279 279 278 278 278 277
305 308 306 309 313 313 312 309 306 308 311 306 299 303 306 306 308 307 308 312 312 313 318 318 310 311 318 321 319 314 313 318 320 320 312 306 308 310 309 309 309 309 309 308 307 305 304 301 300 299 299 298 296 295 295 294 293 293 292 289 285 284 284 284 284 284 284 284 283 283 282 282 282 282 281 281 280 280 280 280 279 279 278 278 278 277
305 305 305 308 309 308 309 307 303 304 306 302 302 309 311 308 310 310 310 313 315 319 322 315 309 312 315 319 322 316 312 314 315 317 313 307 309 310 309 310 309 309 309 308 307 305 303 301 300 299 299 297 296 295 295 294 293 293 292 289 285 284 284 284 284 284 284 283 283 283 282 282 282 282 281 281 280 280 280 279 279 279 278 278 277 277
307 309 308 306 306 305 306 307 303 301 301 304 311 313 311 312 311 313 319 317 316 320 319 312 310 311 312 318 322 319 318 314 309 314 315 309 309 310 310 310 309 309 309 307 307 305 303 301 300 299 298 297 296 295 295 294 293 292 292 290 285 284 284 284 284 284 283 283 283 282 282 282 282 281 281 280 280 280 279 279 279 278 278 278 277 277
313 313 308 305 306 304 308 314 310 306 307 309 316 316 317 322 317 317 326 321 317 317 312 310 311 309 312 317 317 318 323 316 305 308 311 308 309 310 310 310 309 309 308 307 307 305 303 301 300 299 298 297 296 296 295 294 293 292 292 290 285 283 284 284 284 284 283 283 283 282 282 282 282 281 281 280 280 280 279 279 279 278 278 278 277 277
318 317 309 308 308 303 307 317 315 314 314 312 315 316 319 322 319 321 322 314 314 315 309 305 308 312 314 315 320 320 317 311 305 306 308 308 309 310 309 309 309 308 308 307 307 305 303 301 300 299 298 298 297 296 295 294 293 292 292 291 286 283 284 284 283 283 283 283 282 282 282 282 281 281 281 280 280 279 279 279 278 278 278 277 277 277
316 317 311 309 308 305 307 310 309 311 311 310 310 311 315 317 315 317 319 315 314 315 309 304 308 317 317 317 322 315 307 305 306 307 308 308 309 309 309 309 309 309 308 308 307 305 303 301 299 299 298 298 297 296 295 294 293 292 292 291 286 283 284 283 283 283 283 283 282 282 282 281 281 281 281 280 280 279 279 278 278 278 278 277 277 276
313 314 311 307 304 304 307 305 304 309 310 306 306 310 313 315 315 313 312 312 311 312 314 312 314 318 314 315 314 306 305 306 305 306 307 308 309 309 309 309 309 309 309 308 307 306 304 301 300 299 298 298 297 296 295 294 293 293 292 291 286 283 283 283 283 283 283 283 282 282 282 281 281 281 280 280 280 279 279 278 278 278 278 277 277 276
312 313 312 308 304 303 304 303 302 306 310 307 308 313 309 305 313 316 309 306 306 311 316 313 314 314 311 315 318 311 313 313 309 307 307 308 309 308 308 308 308 309 308 308 308 306 303 301 300 299 299 298 297 296 295 294 293 293 292 291 286 283 283 283 283 283 283 282 282 282 282 282 281 281 280 280 280 279 279 278 278 278 277 277 277 276
308 314 314 309 308 305 301 302 303 302 307 311 311 312 305 301 309 313 310 312 311 313 315 312 313 314 311 316 321 316 315 317 315 308 304 307 309 308 307 308 308 308 308 308 307 305 303 301 300 299 299 298 297 296 295 294 293 293 292 290 285 283 283 283 283 283 283 282 282 282 282 281 281 281 280 280 279 279 279 278 278 278 277 277 276 276
304 314 316 307 308 307 300 303 307 304 303 307 307 305 305 308 312 311 311 315 312 311 315 314 313 312 311 318 322 316 315 315 313 311 308 308 307 306 307 307 308 309 308 308 307 305 303 301 300 299 299 298 297 296 295 294 293 293 292 289 285 283 283 283 283 283 282 282 282 282 281 281 281 280 280 280 279 279 278 278 278 278 277 277 276 276
302 310 316 309 305 305 304 307 313 311 304 303 305 305 306 309 311 310 309 311 312 313 314 313 315 315 316 323 323 314 313 312 311 315 314 308 306 306 306 307 308 309 308 308 307 305 303 301 300 299 299 298 297 296 295 294 293 292 292 288 284 283 283 283 283 282 282 282 281 281 281 281 281 280 280 280 279 279 278 278 278 277 277 276 276 276
303 306 313 314 306 305 309 310 313 316 313 310 311 310 310 308 307 307 307 307 311 316 316 312 316 316 313 317 317 311 312 312 310 312 310 305 306 306 305 307 309 308 308 308 306 305 303 301 300 299 299 298 297 296 295 294 293 292 291 288 285 283 282 282 283 282 282 281 281 281 281 281 280 280 280 280 279 279 278 278 278 277 277 276 276 275
306 306 310 316 313 311 313 307 303 309 312 313 313 313 314 311 309 309 308 307 307 311 314 312 314 314 311 314 315 311 311 309 306 306 305 305 306 305 305 308 308 308 308 307 306 305 303 301 300 299 298 298 297 296 295 294 293 292 291 288 285 284 283 282 283 282 282 281 281 281 281 280 280 280 280 280 280 279 278 278 277 277 276 276 275 275
303 306 309 312 311 310 306 299 297 300 303 306 306 306 310 311 312 313 312 312 308 306 308 308 310 313 312 313 312 309 307 305 305 306 305 305 305 304 306 307 308 308 307 307 306 304 302 301 300 299 298 298 297 296 295 294 293 292 291 289 286 284 283 282 282 282 282 281 281 281 280 280 280 280 280 280 280 279 279 278 277 277 276 276 275 275
302 306 308 311 312 308 303 298 296 297 300 305 305 304 307 310 312 313 312 311 310 309 310 310 312 314 311 305 303 304 305 305 307 307 305 305 305 305 306 307 308 308 307 306 305 304 302 301 300 299 298 298 297 296 295 294 293 291 290 289 286 284 283 282 282 282 281 281 281 280 280 280 280 280 280 280 280 279 279 278 277 277 276 275 275 275
304 307 307 309 313 312 312 311 307 304 304 307 308 306 305 307 308 308 306 305 308 311 312 313 315 314 310 306 304 305 305 304 305 306 305 304 304 304 306 307 308 307 306 306 304 303 302 301 300 299 298 298 297 296 295 294 292 291 290 289 287 284 283 282 282 282 281 281 281 280 280 280 280 280 280 280 279 279 279 278 277 276 276 275 275 274
303 306 306 308 310 309 312 316 313 309 308 307 307 306 304 305 307 307 307 306 309 309 307 311 316 312 307 309 308 307 306 305 304 304 304 304 304 304 305 306 307 306 306 305 304 303 302 300 300 299 299 298 297 296 295 293 292 291 290 289 287 284 282 282 282 282 281 281 281 280 280 280 280 280 280 279 279 279 278 278 277 276 275 275 274 274
303 305 305 308 311 309 309 310 306 304 306 305 306 307 307 305 304 306 309 310 310 309 307 310 311 308 307 307 306 306 306 306 304 303 303 304 304 304 305 306 307 306 306 305 303 303 302 301 300 299 299 298 296 296 294 293 292 291 290 290 287 283 282 282 282 282 281 281 281 280 280 280 280 280 279 279 279 279 278 278 277 276 275 274 274 274
304 307 306 306 309 307 306 307 304 302 304 304 304 307 308 307 304 305 308 308 308 308 310 310 308 308 309 307 306 306 305 305 304 302 303 304 304 305 305 306 307 306 306 305 303 303 302 301 301 300 299 298 296 295 294 293 293 291 290 289 286 282 282 282 282 282 281 281 281 280 280 280 280 279 279 279 279 278 278 277 276 276 275 274 274 273
302 307 305 304 308 307 304 304 304 302 303 303 304 304 305 305 305 305 306 305 306 307 309 309 309 308 307 306 306 305 304 304 303 303 304 304 305 306 306 306 307 307 306 305 305 304 303 302 301 300 299 297 296 295 294 294 292 291 290 288 284 282 282 282 282 282 281 281 281 280 280 280 280 279 279 279 279 278 278 277 276 276 275 274 274 273
300 309 306 301 306 308 305 304 303 303 304 305 304 303 303 303 303 304 304 303 304 305 306 306 306 305 304 304 304 304 303 303 303 303 305 305 306 306 306 307 307 307 307 306 305 304 304 303 301 300 299 297 296 295 295 294 292 291 290 286 283 282 282 282 282 282 281 281 281 280 280 280 279 279 279 279 279 278 278 277 276 275 275 274 274 273
299 308 306 302 305 309 309 308 305 304 305 304 303 302 302 302 301 301 301 301 302 304 303 303 303 303 303 302 302 303 303 302 302 303 304 305 306 306 306 306 307 307 307 306 305 305 304 302 301 300 299 297 296 295 295 293 292 291 288 285 283 282 282 282 282 282 281 281 280 280 280 280 279 279 279 279 279 278 278 277 276 275 275 274 274 273
298 304 305 303 306 310 311 310 308 305 304 304 306 306 304 303 305 304 302 300 302 304 304 303 304 306 304 302 302 303 303 302 302 303 304 305 306 305 305 306 306 306 307 306 305 305 304 303 301 300 298 297 296 295 295 293 292 290 288 284 283 283 282 282 282 281 281 281 280 280 280 280 279 279 279 279 279 278 278 277 276 275 274 274 274 273
299 303 306 304 307 314 311 307 306 303 304 310 315 316 312 308 308 308 306 304 302 303 306 307 308 307 305 303 304 305 304 303 303 304 305 305 305 306 306 305 306 307 307 306 305 304 304 303 302 300 298 296 295 295 294 293 291 290 287 284 283 283 282 282 281 281 281 281 280 280 280 280 279 279 279 279 279 278 278 277 276 275 274 274 273 273
298 302 304 301 307 316 311 305 302 301 307 316 318 319 317 311 310 311 310 309 305 302 306 308 307 306 305 304 306 306 304 304 304 304 305 305 305 306 306 305 306 307 307 306 305 304 304 303 302 300 297 296 295 295 294 293 291 290 287 284 284 283 282 282 281 281 281 281 280 280 280 279 279 279 279 279 279 278 278 277 276 275 274 274 273 273
302 302 302 301 304 310 308 307 306 308 316 316 310 309 308 304 305 307 307 310 307 302 304 306 305 305 304 303 304 304 304 305 305 305 305 306 306 305 305 305 306 306 307 306 305 305 304 303 302 299 297 296 295 295 294 293 291 290 287 284 283 283 282 282 281 281 281 281 280 280 280 279 279 279 279 279 279 278 278 277 276 275 274 273 273 272
304 303 302 302 304 306 306 306 307 310 312 308 305 306 303 302 305 306 308 312 310 305 305 306 305 304 302 302 304 304 304 304 304 305 306 306 306 305 305 305 305 306 306 306 306 305 304 303 301 299 297 296 295 295 295 293 292 290 288 285 283 283 282 282 281 281 281 281 280 280 279 279 279 279 279 279 279 278 278 277 276 275 274 273 273 272
301 304 303 303 303 304 305 307 307 306 307 310 311 309 305 308 311 310 310 313 309 306 306 308 308 304 300 303 305 304 303 303 303 305 305 305 306 305 305 305 305 306 306 306 306 305 303 302 301 299 297 296 295 295 295 293 292 291 289 286 283 283 282 282 281 281 281 280 280 279 279 279 279 279 279 279 278 278 277 277 276 275 274 274 273 272
296 300 302 302 304 304 304 306 309 307 308 315 316 308 304 307 307 306 308 310 307 305 304 306 308 305 301 302 304 303 303 304 304 304 305 305 306 305 305 305 305 305 306 306 305 305 304 302 301 299 297 296 295 295 295 294 292 291 289 287 284 283 282 282 281 281 281 280 280 279 279 279 279 279 279 279 278 278 277 277 276 275 274 274 273 272
295 298 301 301 303 305 303 305 309 307 307 312 312 306 304 306 304 304 307 310 309 306 304 305 305 303 301 302 302 302 304 306 305 304 305 305 305 305 305 305 305 305 305 306 305 305 304 302 300 299 298 296 296 295 295 294 293 291 290 288 286 284 282 282 281 281 281 280 280 280 279 279 279 279 278 278 278 278 277 277 276 275 274 274 273 272
298 301 302 301 304 305 304 306 308 306 307 309 307 303 303 305 305 306 308 311 310 306 304 304 303 302 303 302 301 302 305 305 305 304 305 305 305 305 305 305 305 305 305 305 306 304 303 302 301 300 298 297 296 295 295 295 294 292 291 289 288 286 283 282 282 281 280 280 280 280 279 279 279 279 278 278 278 277 277 276 276 275 274 274 273 273
301 300 299 301 305 304 302 305 306 306 308 307 304 303 303 303 306 308 309 309 307 304 304 304 302 303 303 301 301 302 304 304 304 304 304 305 305 305 305 305 305 305 305 305 305 304 304 303 301 300 299 297 296 295 295 295 294 293 291 290 289 287 284 283 282 281 281 280 280 280 280 279 279 278 278 278 277 277 276 276 276 275 274 274 273 273
304 303 300 301 303 303 302 303 304 306 308 304 301 303 303 304 309 311 309 307 305 304 304 304 303 303 303 302 302 302 303 303 303 303 304 304 304 305 305 305 305 305 305 305 305 304 304 303 302 301 299 298 297 296 295 295 295 294 292 291 290 289 286 283 282 281 281 280 280 280 280 279 279 278 278 278 277 277 276 276 275 275 274 274 273 273
307 309 310 306 304 303 302 303 306 311 310 303 303 306 304 305 311 309 305 305 305 304 304 303 303 303 302 302 302 302 302 303 302 303 304 304 304 304 304 305 305 305 305 305 305 305 304 304 302 301 300 298 297 296 295 295 295 294 293 292 291 290 288 284 282 282 281 280 280 280 279 279 279 278 278 277 277 277 276 276 275 275 274 274 273 273
306 308 313 311 305 305 309 310 312 313 309 304 305 308 306 306 307 305 303 304 304 303 304 303 303 303 302 302 302 301 302 302 302 303 304 304 304 304 304 305 305 305 305 304 304 305 304 304 303 301 300 299 297 296 296 295 295 295 294 293 291 290 289 286 283 282 281 280 280 279 279 279 279 278 278 277 277 277 276 276 275 275 274 274 274 274
308 306 308 309 306 306 309 311 309 305 303 303 304 305 305 304 305 304 303 303 303 303 303 302 302 302 302 301 301 301 301 302 303 303 303 303 304 304 304 305 305 304 304 304 304 304 304 304 303 301 300 299 298 297 296 295 295 295 294 293 292 291 290 288 285 282 281 281 280 279 279 279 279 278 277 277 277 277 276 276 275 275 274 274 274 274
305 301 302 305 307 305 304 305 304 302 303 304 303 303 304 304 304 304 303 302 302 302 302 301 302 302 302 302 302 302 302 303 303 303 303 303 304 304 304 304 304 304 304 304 304 305 304 304 303 301 300 299 298 297 296 295 295 295 294 293 292 291 290 288 286 283 282 281 280 279 279 279 278 278 277 277 277 277 276 276 275 275 275 274 274 274
303 300 301 304 306 305 304 304 303 302 303 304 303 303 304 303 303 303 302 301 302 302 302 302 302 302 302 302 302 302 302 302 302 303 303 303 303 304 304 304 304 304 304 304 305 305 305 304 303 302 301 300 299 298 297 296 295 295 294 293 292 291 290 289 287 284 282 281 281 280 279 279 278 278 278 277 277 277 276 276 275 275 274 274 274 274
304 302 303 304 304 303 304 304 302 302 304 303 303 303 303 302 302 302 301 301 302 302 302 302 301 302 302 302 302 302 302 302 302 302 302 302 303 303 303 303 304 303 304 304 305 305 305 304 303 302 301 300 299 298 297 296 296 295 294 294 293 291 290 289 288 285 283 282 281 280 279 279 278 278 277 277 277 277 276 276 275 275 274 274 274 274
302 302 303 304 304 303 303 303 302 303 304 303 303 302 302 302 302 302 302 302 302 301 302 301 301 301 301 301 301 301 301 301 301 301 301 301 302 302 302 303 303 303 303 303 304 305 305 304 303 302 301 300 299 298 297 296 296 295 295 294 293 292 290 289 288 286 284 282 281 281 280 279 278 278 277 277 277 277 277 276 275 275 274 274 274 274
301 303 303 304 304 304 304 304 303 303 303 302 302 302 302 302 302 302 302 302 301 301 301 301 301 302 301 301 301 300 300 301 300 301 301 301 301 302 302 302 302 303 303 303 303 304 305 305 304 302 301 300 299 298 298 297 296 295 295 295 294 293 291 290 288 287 284 283 282 281 280 279 279 278 277 277 276 277 277 276 275 275 274 274 274 273
302 303 303 305 305 304 304 304 304 302 301 301 301 302 302 303 302 302 302 302 301 301 301 300 301 301 301 301 301 300 301 301 300 301 301 301 302 302 302 302 302 302 302 302 303 303 304 304 304 303 302 301 300 299 298 297 296 296 295 295 295 293 291 290 289 287 285 283 282 281 280 279 279 278 278 277 276 276 277 276 276 275 274 273 273 273
Wind_Speed
10 7 5 2 4 5 4 4 5 2 4 4 4 3 3 3 3 3 4 3 1 0 6 6 5 10 13 13 17 18 12 16 23 22 23 22 20 19 19 16 14 14 14 17 19 17 16 15 15 17 22 26 26 27 28 28 29 28 25 23 22 22 21 21 21 22 23 24 26 27 27 27 27 27 26 25 25 25 25 25 25 26 27 28 29 29
8 8 3 3 6 4 2 3 4 4 4 3 3 3 1 3 4 3 2 4 2 0 4 2 5 11 13 11 15 14 8 13 21 23 24 25 22 21 21 19 17 15 15 18 19 17 16 16 15 17 22 25 26 27 27 27 29 28 25 23 22 22 21 20 21 22 23 24 25 26 26 26 26 26 26 26 26 25 25 25 25 25 25 26 27 28
6 7 4 6 4 2 4 4 6 5 5 3 1 2 1 2 4 4 3 4 4 0 4 5 6 12 13 10 13 12 10 14 18 22 26 25 23 23 22 21 19 17 16 18 19 18 17 16 16 18 21 25 26 26 26 26 28 28 25 23 22 21 20 20 20 21 22 23 24 25 25 26 26 25 25 24 23 23 24 24 25 26 26 27 27 27
5 4 5 2 3 6 6 5 6 5 4 3 3 3 2 3 2 3 3 5 3 1 4 5 5 9 10 8 8 7 8 12 14 16 21 22 22 23 23 23 21 21 19 18 19 18 17 17 17 17 20 24 26 25 25 25 27 27 25 24 22 21 20 19 19 20 21 21 22 23 24 25 25 25 25 24 23 23 23 23 24 25 27 27 28 28
5 3 4 4 7 7 4 4 6 4 3 2 2 4 2 3 2 4 3 5 4 2 2 4 5 6 5 5 6 5 5 8 9 11 15 19 21 22 24 25 24 23 21 19 19 18 18 18 17 17 20 24 24 24 24 24 26 26 25 24 22 20 19 18 18 19 20 21 22 23 24 25 26 26 27 28 28 28 27 26 26 26 27 28 28 28
3 5 4 4 6 8 5 4 4 2 1 3 3 3 3 3 3 4 4 5 4 4 3 5 4 4 5 5 7 5 6 6 7 8 13 17 19 22 25 26 25 24 22 21 21 19 18 19 17 17 20 23 23 23 23 24 25 25 25 24 22 20 18 18 18 19 20 21 23 24 25 27 28 28 29 29 30 30 30 29 28 27 27 28 28 28
1 7 7 5 5 5 4 2 1 4 3 3 2 3 4 4 1 2 4 3 2 2 3 4 3 4 6 6 7 5 6 8 7 9 14 17 20 23 26 26 24 24 23 22 22 20 20 20 17 17 20 22 22 22 22 23 24 25 25 24 22 20 18 18 18 18 20 21 22 24 25 26 27 28 28 28 28 28 29 28 28 28 28 28 29 29
1 7 9 6 4 3 3 2 0 5 4 2 1 3 5 4 2 1 3 2 1 3 2 3 3 2 5 6 6 4 6 8 7 9 13 18 23 24 25 24 22 22 22 23 23 21 21 20 17 17 19 20 21 21 21 22 23 25 25 24 22 20 18 18 18 18 20 21 22 23 24 24 25 26 27 27 27 27 27 27 28 28 28 28 28 28
1 4 4 2 3 3 2 1 1 4 1 4 1 3 3 3 4 4 3 1 1 2 3 4 1 1 5 7 5 4 4 7 8 8 10 15 20 21 21 20 20 21 21 23 23 22 22 20 17 17 19 19 20 21 21 22 23 25 26 25 22 19 18 17 18 18 19 20 21 22 23 24 25 26 26 26 27 27 27 27 28 28 28 28 28 28
0 0 2 3 3 2 2 4 3 4 2 2 3 3 4 4 4 4 3 1 2 3 3 5 1 1 5 7 5 4 2 6 8 7 9 12 14 15 17 18 20 20 20 22 23 22 22 20 17 17 18 18 19 20 21 22 23 25 27 26 22 19 17 17 17 18 19 20 21 22 23 24 25 26 27 27 28 28 29 29 29 29 29 29 29 29
2 2 3 1 1 2 3 3 2 3 2 2 4 4 4 4 4 3 2 3 4 3 5 6 1 3 3 6 4 2 3 5 6 6 8 11 12 14 17 19 20 20 19 21 22 21 21 19 17 17 17 17 19 20 21 22 22 24 28 27 22 19 17 17 17 17 18 19 20 22 23 24 25 27 28 29 29 30 31 31 31 32 31 31 31 30
4 1 1 2 3 3 2 1 0 1 2 4 3 3 2 3 4 3 4 5 3 3 6 4 1 4 2 6 5 6 6 6 7 7 8 11 14 17 19 21 21 20 19 20 21 21 21 19 17 16 16 17 19 20 21 21 22 24 28 28 23 19 17 17 17 17 18 19 20 21 22 23 25 26 27 28 29 30 31 32 32 33 33 33 32 32
2 0 4 4 3 3 3 1 2 2 3 3 3 5 4 3 4 3 4 3 1 5 3 1 1 1 5 9 9 10 11 8 9 11 12 14 16 19 22 23 23 21 20 21 21 21 21 19 17 15 15 17 18 20 21 21 22 24 27 28 24 19 17 16 16 17 18 18 19 20 21 23 24 25 26 27 28 29 29 31 32 33 34 35 34 34
3 4 6 3 2 3 3 3 2 3 4 5 3 3 3 2 3 3 4 2 4 5 3 1 1 3 5 7 9 10 11 11 11 14 16 17 18 22 24 24 25 24 22 22 22 21 21 19 16 15 15 17 19 21 21 21 21 23 26 28 24 19 16 16 16 17 17 18 19 20 21 22 23 25 26 26 27 28 28 30 30 31 32 33 34 34
2 4 3 0 2 3 3 3 3 2 2 2 2 4 2 3 3 2 3 2 4 6 5 3 1 3 3 5 8 9 11 15 15 14 15 16 19 22 24 24 23 23 23 23 22 22 21 18 16 15 15 17 19 21 21 20 21 23 26 28 24 19 16 15 16 16 17 17 18 19 20 21 23 24 25 26 26 27 28 29 30 31 31 32 33 33
1 4 5 2 2 1 1 2 3 4 3 0 2 3 1 3 4 1 3 4 2 4 4 3 3 5 4 8 9 7 11 14 12 11 13 16 18 19 22 22 21 21 21 20 22 22 20 18 16 15 15 17 19 20 20 20 21 23 26 27 24 19 16 15 15 16 17 17 18 19 20 21 22 24 25 25 26 27 27 28 30 30 30 31 32 32
2 5 5 3 2 2 3 2 2 2 1 1 1 1 2 3 5 3 1 0 3 1 4 2 4 5 4 7 9 6 7 9 8 9 13 15 16 18 20 21 19 18 18 18 19 20 19 17 16 15 15 17 19 20 20 19 21 23 26 27 22 18 16 15 15 16 17 17 18 18 19 21 22 23 25 26 26 27 27 28 29 30 30 30 31 32
2 4 6 0 1 1 2 2 2 2 2 2 0 3 2 2 4 4 0 4 4 0 4 2 4 6 4 4 7 6 6 9 7 8 11 13 15 17 19 20 18 16 15 16 17 17 18 17 16 15 16 17 19 20 19 19 21 23 26 26 21 17 15 15 15 16 17 17 18 19 19 21 22 23 24 25 26 27 28 29 30 30 31 31 31 31
2 2 6 1 2 2 2 1 2 3 3 3 3 3 2 1 0 1 0 1 2 2 5 5 6 5 3 4 6 6 7 9 8 7 8 11 14 18 20 20 17 14 15 16 16 17 17 17 16 16 16 17 19 19 19 20 21 23 26 25 20 16 15 15 15 16 16 17 18 18 19 20 22 23 24 25 26 26 28 29 30 31 31 31 31 31
2 1 5 3 1 3 3 1 1 2 3 4 3 1 1 2 4 1 0 2 1 2 3 4 6 5 6 6 5 8 10 9 8 7 6 10 15 19 21 20 16 14 15 17 17 17 18 17 16 16 16 18 19 19 19 20 21 23 26 24 18 15 15 15 16 16 16 17 18 18 19 20 21 23 24 25 26 27 28 29 30 31 31 31 31 31
2 2 3 5 3 2 2 2 4 4 2 2 1 1 2 1 1 0 0 2 3 2 2 2 4 7 8 4 6 10 11 8 8 7 7 13 18 20 21 19 15 14 16 17 17 17 17 17 17 17 17 18 18 18 19 20 21 23 25 23 19 15 15 15 16 16 16 16 17 18 19 20 22 23 24 25 25 27 28 29 30 30 31 31 31 31
1 2 3 4 4 2 4 4 3 5 5 4 3 3 3 2 1 0 3 2 1 2 3 2 3 10 8 3 6 9 8 8 9 8 10 17 21 22 21 17 14 15 16 17 17 17 18 18 17 17 17 18 18 18 19 20 21 22 24 23 20 16 15 15 16 16 16 16 17 18 19 20 22 23 24 25 25 27 28 29 30 31 31 31 31 31
2 2 0 4 5 5 4 1 3 4 4 4 2 2 3 3 4 4 3 4 1 1 2 3 2 10 7 5 5 7 7 10 11 9 13 20 23 24 22 17 14 15 16 16 17 18 18 18 18 18 18 18 18 18 19 20 21 21 23 23 21 17 15 16 16 16 16 16 17 18 19 20 22 22 23 24 26 27 28 29 30 31 31 31 31 31
1 2 1 5 5 4 4 3 3 2 3 2 1 2 4 2 3 5 5 3 2 2 1 2 3 9 7 3 5 7 8 11 13 14 17 22 25 25 22 17 15 15 16 16 17 18 19 19 19 18 18 18 18 19 19 20 20 21 23 23 21 17 15 15 16 16 16 16 16 17 18 20 21 22 23 24 26 27 28 29 30 30 31 31 30 30
1 0 1 3 6 7 6 5 5 3 1 2 3 1 2 3 6 4 2 2 1 5 6 4 5 9 7 2 2 5 7 11 16 19 20 21 25 25 21 17 15 15 16 16 17 19 19 19 19 18 18 18 18 20 20 20 20 21 22 23 22 17 15 15 16 16 15 15 16 17 18 20 21 22 23 24 26 27 28 29 29 30 30 30 30 29
2 2 2 1 2 4 5 5 4 3 2 2 2 2 3 4 6 3 2 3 3 4 6 6 6 10 12 10 9 8 7 10 16 19 20 21 23 23 20 17 15 15 16 16 17 19 19 19 19 18 18 19 19 20 20 20 21 22 23 24 23 18 15 15 16 15 15 15 16 17 18 19 21 22 23 24 26 27 28 29 29 30 30 30 29 29
1 1 3 5 6 6 7 8 4 1 2 5 5 4 5 5 6 5 4 3 5 3 3 8 11 12 19 18 15 13 10 10 13 17 21 23 23 23 21 18 16 16 16 16 17 19 19 19 19 18 18 19 20 20 20 20 21 22 23 25 23 17 14 15 15 15 15 15 16 17 18 19 21 22 23 24 25 26 27 28 29 29 29 29 28 28
3 2 4 6 9 10 9 10 6 2 4 10 8 6 6 6 6 7 6 7 5 4 5 10 9 8 16 18 15 15 14 12 14 20 25 27 27 27 24 19 17 16 17 17 17 19 20 20 19 19 19 20 20 20 20 20 21 22 24 26 22 17 14 15 15 15 15 15 16 17 17 19 20 21 23 24 25 26 27 28 28 28 28 28 27 27
3 4 4 4 7 11 10 11 9 5 6 8 9 9 8 7 10 12 14 9 7 6 11 10 5 7 15 18 17 17 17 16 20 27 30 30 29 28 24 20 19 18 18 18 18 18 20 21 19 19 20 20 20 20 20 21 21 22 25 25 21 16 15 15 15 14 14 15 16 16 17 19 20 21 22 24 25 26 27 28 28 27 27 27 27 26
3 3 3 2 5 11 11 10 7 6 6 7 10 11 10 10 13 15 14 9 8 12 17 15 14 16 18 18 19 25 29 26 27 30 30 29 29 26 23 22 20 20 19 19 19 18 19 20 19 19 20 21 20 20 20 20 21 22 24 23 20 16 15 15 15 15 14 15 15 16 17 18 20 21 22 24 25 27 27 28 28 28 27 27 26 26
3 3 1 3 3 9 10 7 3 5 6 9 13 12 9 9 10 11 10 6 6 12 16 15 15 17 20 20 20 28 32 25 23 27 27 27 26 24 24 23 22 22 21 19 19 18 19 20 19 20 21 21 20 19 19 20 20 22 22 21 18 16 15 15 15 15 15 15 15 15 16 18 19 21 22 24 25 27 28 28 29 28 27 26 26 25
3 2 2 4 3 7 6 5 5 5 5 9 16 15 8 7 6 7 7 6 8 9 9 8 8 11 15 14 13 20 24 19 19 25 27 27 26 24 25 26 25 24 21 19 19 19 19 19 20 20 21 20 19 19 19 19 20 21 21 19 17 16 15 15 15 15 15 15 15 15 16 18 19 21 22 23 25 27 28 29 29 28 27 26 25 25
3 2 1 2 2 6 5 5 6 7 7 7 10 8 7 7 5 4 5 8 11 8 4 6 9 10 9 9 11 15 18 17 20 23 26 27 28 28 27 26 26 24 21 19 20 19 19 19 20 20 20 19 18 18 18 18 19 20 19 18 17 15 15 16 15 16 16 15 15 15 15 17 19 20 22 23 25 26 28 29 29 28 27 26 24 24
3 4 1 1 1 6 8 6 5 5 4 6 6 6 7 7 7 7 8 10 11 9 7 9 9 10 12 12 13 15 18 23 28 28 28 29 31 31 28 24 23 22 20 20 21 20 19 19 20 20 19 18 17 17 17 18 18 19 18 17 16 15 15 15 15 16 16 16 15 14 15 16 18 20 21 23 24 26 27 28 28 28 27 25 24 23
3 3 1 1 2 5 6 6 6 4 6 9 7 3 5 6 7 8 10 14 13 12 13 14 14 14 18 21 22 25 29 33 34 33 32 31 29 27 24 22 21 20 20 21 21 21 20 20 20 20 18 16 15 16 17 17 17 17 17 16 15 14 15 15 15 16 16 16 15 15 15 16 17 19 20 22 23 25 26 27 27 27 26 25 24 22
5 4 1 0 2 3 4 4 2 6 10 13 9 2 1 1 3 3 7 13 14 11 11 13 15 18 23 27 29 30 31 30 32 35 34 27 22 20 20 21 21 19 19 20 20 21 20 20 20 18 16 14 15 16 16 17 17 17 16 15 14 14 15 15 15 16 16 16 16 15 15 16 17 18 19 21 22 23 25 26 27 27 25 24 23 20
6 5 1 1 2 1 1 2 5 7 10 11 4 1 2 3 4 3 3 10 13 9 9 11 13 16 20 25 29 28 24 20 21 27 27 22 19 19 20 20 21 20 20 20 19 20 21 20 20 17 15 14 15 15 16 16 17 17 16 15 14 14 15 15 15 16 16 16 16 15 15 15 17 18 19 20 21 23 24 25 26 26 25 24 22 19
5 3 3 2 1 1 1 3 5 5 5 7 6 4 2 2 4 5 2 7 12 13 12 12 11 13 16 20 25 22 16 12 10 17 24 26 24 23 21 22 23 22 22 20 19 20 21 20 19 16 15 15 15 15 16 17 17 17 16 15 14 14 15 15 15 16 16 16 16 15 15 16 16 17 18 19 20 21 23 23 24 24 23 23 22 18
4 3 3 2 2 1 2 2 3 3 6 10 9 5 1 3 3 6 3 7 9 10 11 11 11 15 17 21 23 15 9 8 8 17 28 32 30 28 27 27 27 24 23 21 20 20 20 19 19 17 16 15 14 14 16 17 17 17 16 16 15 15 15 15 16 16 16 16 16 15 16 16 16 17 17 18 19 20 21 22 23 22 22 22 21 17
4 4 2 2 4 2 3 2 4 5 8 11 11 8 3 4 4 6 5 9 7 5 7 8 12 19 22 26 23 9 3 8 13 25 37 37 35 36 34 32 30 26 24 22 20 19 19 20 20 19 17 15 13 14 16 17 17 16 16 17 16 16 15 15 16 16 16 16 16 16 16 16 16 16 17 17 18 19 20 20 21 21 20 20 20 17
2 0 1 3 4 4 5 4 5 4 9 13 9 3 4 6 3 2 5 9 8 11 14 16 22 28 30 30 22 13 16 25 30 38 43 40 39 40 37 34 31 27 25 22 20 20 20 21 21 20 17 15 15 16 17 17 17 16 16 17 17 17 16 16 16 17 16 16 16 16 16 16 15 16 16 17 17 18 19 19 20 20 19 19 19 16
1 1 1 2 2 3 4 3 3 6 10 9 5 6 8 6 1 5 10 15 20 24 29 31 32 33 34 34 29 28 35 42 42 42 43 41 42 42 38 33 29 27 25 23 22 21 22 22 22 21 18 16 16 18 18 17 17 17 17 17 17 17 17 16 16 17 16 16 16 16 16 16 15 15 15 16 17 17 18 18 19 18 18 18 18 16
4 3 2 3 4 2 1 1 1 7 7 9 11 7 6 6 8 12 17 26 33 34 37 39 38 36 36 37 38 39 43 45 44 43 43 44 43 41 37 32 28 26 26 24 23 23 22 22 22 21 19 17 18 19 19 18 18 17 18 17 17 17 17 16 16 17 16 16 16 16 16 16 16 15 15 15 16 16 16 17 17 17 17 17 16 15
4 5 4 4 4 4 2 3 5 6 6 14 10 6 8 13 22 26 25 31 39 41 39 39 41 42 38 38 42 44 44 45 45 44 43 43 43 40 37 32 28 27 27 24 23 23 22 22 22 21 20 19 20 21 20 19 18 18 18 17 17 18 18 16 16 17 17 17 17 16 16 15 15 15 15 15 15 15 15 16 16 16 16 16 15 14
9 9 4 4 5 5 5 11 14 15 15 13 15 20 24 29 34 35 33 35 39 40 39 39 43 46 43 41 43 45 44 44 44 43 42 43 42 39 36 33 30 29 28 25 23 22 22 22 22 22 22 21 21 22 21 20 19 20 18 16 17 19 18 17 16 16 17 17 17 17 16 15 14 14 15 15 15 14 14 14 14 14 15 15 15 14
12 11 4 1 3 4 12 22 24 26 33 32 24 23 29 34 36 35 35 36 36 39 41 41 43 46 45 42 42 43 44 43 43 44 43 41 40 38 35 33 31 29 27 25 24 23 23 23 23 24 24 23 23 23 22 21 21 20 18 17 18 19 19 18 17 16 16 17 17 17 17 15 14 14 14 14 14 14 13 13 13 13 14 14 15 14
8 9 6 3 3 2 9 17 14 16 28 33 31 30 30 31 33 34 33 35 38 41 42 41 41 42 41 39 39 41 43 41 41 43 43 40 38 36 34 33 31 28 26 25 23 23 23 24 25 25 25 24 23 22 22 23 22 20 19 19 19 20 19 19 18 16 16 16 17 17 17 15 14 13 13 14 14 14 14 13 13 12 12 13 14 14
2 3 3 4 4 3 10 21 24 28 34 33 28 26 25 29 37 41 38 38 40 41 40 40 39 38 38 37 37 38 41 41 39 41 42 39 36 35 34 32 30 28 27 25 23 23 24 25 26 26 26 25 23 22 23 23 22 21 21 20 20 20 20 20 19 17 16 16 16 17 17 15 14 13 12 13 14 14 14 13 12 11 11 11 13 13
3 2 1 1 4 6 12 22 24 25 30 28 22 24 30 36 43 44 40 38 38 38 38 37 36 34 35 36 36 37 39 40 38 37 38 38 35 33 32 31 29 28 28 26 25 25 25 26 27 27 26 25 23 22 24 24 23 23 22 21 21 21 21 21 21 19 17 17 17 17 17 16 14 13 12 12 12 13 13 12 11 10 9 10 11 11
3 4 1 1 5 6 10 18 19 14 17 23 28 36 40 39 38 37 37 36 36 35 35 35 35 34 32 31 31 33 36 37 36 35 35 35 33 32 31 30 28 28 27 26 26 26 26 27 28 28 27 26 24 24 25 25 25 25 23 22 22 22 21 21 22 21 19 18 18 17 17 16 15 13 12 12 11 11 11 10 9 8 7 7 8 9
8 10 4 3 7 10 18 31 33 22 17 24 36 42 37 32 31 32 33 33 32 31 32 32 33 34 35 34 31 29 32 35 35 34 35 34 32 30 29 28 28 27 27 27 27 28 28 28 29 29 29 27 26 26 26 26 27 26 25 23 23 22 21 21 22 22 21 19 18 18 17 16 15 13 13 12 12 10 10 9 9 8 5 5 6 7
Wind_Direction
68 74 52 40 271 279 280 217 186 160 128 123 108 110 174 216 273 260 267 294 119 251 263 241 255 274 278 278 282 295 286 246 242 244 247 247 244 248 257 268 282 292 297 307 307 301 303 309 318 330 335 335 335 334 334 339 345 345 340 338 339 341 342 344 348 351 353 352 352 352 352 352 351 350 351 352 352 351 350 348 346 344 343 342 342 343
70 72 40 300 259 242 264 196 155 112 99 96 124 135 216 226 259 265 266 320 23 83 270 305 323 286 277 278 284 290 274 247 243 238 242 243 241 246 255 264 278 289 295 305 305 297 298 303 312 326 332 333 334 333 334 341 346 344 340 337 338 339 340 344 348 351 352 352 352 351 350 350 350 349 349 350 350 349 348 346 344 343 342 342 342 342
52 56 341 306 266 150 54 66 102 98 94 72 96 133 269 243 274 293 305 335 9 7 278 352 348 293 287 286 283 276 246 252 255 244 243 244 240 245 254 263 273 283 292 302 300 294 295 298 306 322 330 331 332 333 335 342 345 344 341 337 336 337 339 343 347 350 351 351 351 349 348 348 349 348 348 348 348 347 346 344 342 342 342 342 342 342
63 26 325 356 87 81 40 36 76 77 74 59 62 97 268 296 342 299 308 332 336 248 273 332 330 288 297 304 292 290 263 266 273 257 249 246 244 248 256 263 270 280 289 298 296 291 291 293 302 318 327 329 331 333 335 341 344 343 340 337 334 334 337 341 345 347 349 349 348 347 347 347 347 346 345 346 347 348 347 346 344 342 342 342 341 341
97 303 325 71 68 68 64 28 57 66 20 324 162 136 243 293 281 242 290 329 323 329 331 350 335 292 312 321 291 318 323 277 269 264 251 243 243 248 255 261 269 278 287 294 294 290 289 290 299 315 322 325 330 332 333 339 343 342 340 336 333 332 335 339 342 345 346 347 346 345 346 346 346 346 345 346 347 349 348 347 346 344 342 341 341 340
81 335 359 68 44 52 71 32 48 118 354 315 243 201 209 216 239 281 335 3 13 1 348 28 15 295 309 303 269 302 340 296 269 261 248 239 240 245 253 262 271 278 284 290 293 291 288 288 295 310 318 323 329 330 331 336 341 342 339 334 331 329 334 338 339 343 345 345 344 345 346 346 346 346 347 347 346 346 346 345 344 343 341 340 339 338
41 18 44 79 60 45 39 15 156 137 84 1 289 200 155 128 134 342 9 41 49 308 315 61 105 262 309 301 270 295 315 295 286 269 254 246 244 247 254 264 274 280 282 286 290 290 286 285 292 305 314 320 327 328 329 333 338 342 338 333 329 327 333 337 337 341 343 343 343 344 346 346 345 345 345 346 344 343 342 341 341 340 339 338 336 336
330 19 31 47 69 70 31 352 198 117 95 336 316 125 117 104 133 116 65 77 257 271 318 42 119 223 295 277 265 295 304 301 300 278 262 250 248 252 259 267 279 286 284 284 286 288 285 283 289 301 310 318 325 326 327 330 336 340 339 334 329 327 332 334 335 340 342 340 342 343 344 345 344 343 343 343 342 341 340 339 339 338 338 336 335 335
329 15 9 41 59 64 59 312 189 126 54 290 223 122 115 125 141 127 101 143 300 359 315 314 34 228 276 273 294 337 313 299 294 279 271 256 251 257 264 274 287 291 285 281 283 286 283 281 285 295 306 316 323 324 324 328 333 338 339 335 329 327 330 331 333 338 339 338 340 341 341 343 343 342 342 341 340 340 339 339 339 337 336 336 335 334
211 301 219 134 71 21 267 259 185 153 293 268 143 74 52 74 83 87 96 129 35 27 273 268 347 53 279 280 308 351 317 277 275 274 272 264 259 266 277 286 293 292 284 278 280 283 280 278 280 290 304 316 321 321 322 327 331 336 338 336 330 328 329 329 332 336 336 336 338 340 340 342 342 341 340 340 340 340 340 339 339 338 337 336 336 335
285 236 218 141 69 274 271 284 187 178 223 130 92 35 32 32 37 61 69 83 59 346 260 243 154 96 299 283 262 252 266 250 256 281 281 273 278 287 294 295 294 292 284 277 278 280 277 274 276 289 303 314 318 318 320 325 329 333 337 336 331 328 328 327 330 333 332 334 336 338 339 341 341 340 339 340 340 341 340 339 339 338 338 337 336 335
341 45 269 299 289 302 350 354 335 163 138 115 85 49 45 337 6 28 354 38 70 279 261 240 157 113 221 269 250 244 263 238 227 256 269 269 283 296 299 298 295 291 283 277 277 278 275 271 275 288 302 312 316 316 319 322 326 331 335 336 331 327 326 325 328 330 329 331 334 336 338 339 340 339 339 339 339 340 339 338 338 338 337 336 336 335
352 318 320 320 297 344 46 40 343 358 38 58 55 57 51 348 2 9 333 6 218 250 250 203 290 181 225 250 257 263 271 253 230 242 252 260 278 292 296 297 296 291 282 277 277 278 275 271 276 288 300 310 314 314 316 319 324 328 333 335 332 325 324 324 325 326 325 328 332 334 337 338 339 338 338 338 338 338 338 337 337 337 336 336 335 335
342 306 334 357 294 346 68 89 359 322 357 26 64 70 62 59 35 324 288 322 289 269 275 309 285 278 277 267 243 237 256 263 262 264 260 262 275 287 293 295 295 291 284 278 278 278 275 271 275 285 298 308 312 313 313 315 321 324 329 334 331 323 323 323 322 322 322 326 330 333 336 337 337 337 337 337 337 337 337 336 337 337 336 335 334 334
24 301 306 113 291 345 61 113 130 151 37 29 145 113 102 145 134 262 246 240 287 289 292 308 266 212 263 276 230 226 267 280 280 274 262 263 274 286 293 296 298 297 291 282 278 277 274 270 272 282 295 306 310 310 310 313 317 320 326 332 329 321 320 319 318 317 318 323 328 331 334 335 336 336 336 336 336 336 337 336 336 336 335 334 332 332
73 261 260 289 311 13 93 152 115 101 85 185 159 98 64 184 144 160 210 191 239 312 299 280 238 213 231 274 270 277 289 287 285 273 258 262 279 292 297 300 306 306 299 287 279 277 272 266 268 280 294 303 308 308 307 310 312 315 324 331 328 319 316 315 314 314 316 321 326 329 331 333 335 335 334 335 336 336 336 336 335 335 334 333 332 331
38 278 283 345 346 63 104 175 113 97 143 95 94 189 242 164 117 102 264 326 71 20 287 283 273 286 317 296 299 336 318 299 302 281 261 264 284 300 303 309 313 309 304 293 284 279 272 264 267 279 292 301 305 305 305 307 309 313 323 329 326 316 311 312 312 311 314 319 324 326 329 332 334 335 334 335 337 337 336 336 334 334 333 333 332 332
128 278 294 357 178 9 82 144 64 76 127 80 124 221 208 92 84 95 21 348 35 227 275 308 280 292 341 310 312 342 312 292 293 284 276 277 290 304 311 318 319 312 307 299 290 282 270 265 269 279 290 299 303 303 303 305 306 312 322 326 322 313 308 310 310 310 314 318 321 324 328 332 333 334 334 335 336 336 337 336 335 334 333 333 333 333
118 291 297 248 169 317 353 125 18 15 55 84 155 167 115 112 258 30 60 335 352 294 286 302 292 275 218 236 287 304 285 281 286 289 287 284 294 308 316 322 323 316 312 305 297 286 273 268 272 278 289 297 301 302 302 303 304 311 321 324 319 311 308 310 310 310 314 317 319 322 328 331 332 332 333 335 336 337 337 336 335 335 333 334 335 335
112 110 288 275 212 319 356 95 225 304 36 64 91 68 21 159 173 203 138 165 220 273 282 313 323 292 230 213 235 271 278 281 284 285 276 283 301 314 319 322 323 321 317 310 302 290 278 273 273 278 288 295 299 300 300 302 303 310 320 322 317 312 309 308 308 309 311 314 317 321 327 329 330 331 333 335 337 337 338 337 336 335 334 335 336 337
80 121 255 291 325 328 311 222 198 185 153 92 72 320 296 245 175 234 351 141 146 183 234 308 316 282 259 205 208 258 275 271 261 259 270 292 309 318 322 322 320 321 318 311 303 292 280 274 273 279 286 292 297 298 299 301 302 309 319 321 318 313 309 306 306 307 310 313 316 321 326 328 329 330 333 336 337 338 338 338 338 336 336 338 338 338
129 156 220 294 328 294 248 242 187 168 162 149 175 199 192 186 155 56 301 296 107 158 189 161 285 278 269 181 203 245 259 266 262 252 272 298 311 318 323 322 314 317 317 309 302 291 280 274 275 279 284 290 296 297 297 298 300 308 316 318 318 315 308 304 304 305 309 313 316 321 325 326 328 329 333 336 338 339 340 339 339 338 338 340 340 340
157 112 165 272 269 261 267 286 119 155 148 127 164 184 139 137 131 135 228 266 274 207 181 115 263 271 256 174 200 238 253 274 278 267 278 300 311 316 321 318 309 312 312 305 299 288 279 275 274 277 281 288 295 296 295 296 298 305 312 313 315 314 307 302 303 304 308 313 316 320 324 325 326 328 332 337 339 340 340 340 340 339 339 341 341 340
145 83 13 284 285 311 330 22 72 87 101 112 234 156 141 161 137 151 182 188 210 230 161 87 267 267 266 219 224 254 272 281 284 285 289 300 309 315 318 313 304 307 306 301 294 285 277 272 271 275 281 288 295 295 293 294 296 303 308 310 312 311 304 299 300 303 307 312 315 318 322 324 325 328 333 337 340 341 341 340 341 341 341 342 342 341
221 212 57 337 332 341 346 359 356 346 64 205 247 200 164 127 100 118 155 107 265 228 165 148 251 262 269 283 262 282 296 291 288 295 299 301 306 312 314 307 298 299 300 296 287 280 274 271 273 277 283 290 294 293 291 291 294 300 304 307 310 308 300 297 298 301 305 310 314 317 321 323 324 328 334 338 340 341 341 341 342 342 342 343 343 341
211 216 126 90 323 306 305 307 298 285 263 230 222 220 210 149 134 160 142 110 243 232 162 169 236 268 281 294 301 297 295 290 293 299 302 302 303 306 308 303 292 290 294 290 281 277 274 272 274 278 284 291 292 290 288 287 292 298 301 304 307 303 296 294 296 299 304 309 312 316 320 323 325 330 335 338 340 341 341 342 343 344 344 345 344 342
85 258 208 183 201 223 243 255 252 64 299 274 255 224 211 184 153 130 115 173 203 180 193 224 235 270 286 289 296 300 297 295 299 303 305 306 305 305 307 302 290 287 290 284 277 275 274 273 276 280 285 290 290 288 286 287 292 297 300 303 304 298 292 292 294 297 303 307 311 315 320 323 326 331 335 338 340 341 342 343 346 347 346 345 344 342
81 289 245 203 225 240 246 260 283 5 273 264 261 233 208 192 158 153 197 212 157 119 261 247 218 239 272 280 287 294 298 302 303 303 305 306 306 308 310 302 289 287 287 281 276 275 276 277 277 281 286 288 289 286 284 288 293 297 301 303 300 293 289 291 293 296 301 305 308 314 319 323 327 331 334 337 339 341 343 345 348 349 347 346 345 344
122 259 241 191 253 266 259 262 271 270 258 257 253 243 226 198 177 195 223 213 153 192 251 256 229 237 266 280 284 286 290 294 294 297 301 302 305 310 311 300 288 289 288 282 280 280 280 280 278 281 287 288 287 285 284 289 294 297 302 301 296 290 288 290 292 294 299 303 306 313 319 324 328 331 333 336 339 342 344 346 350 351 349 349 347 345
149 245 241 177 284 284 273 268 253 233 259 272 255 239 225 212 201 213 234 220 189 233 255 266 277 274 271 273 277 282 287 288 289 292 295 299 304 309 308 299 289 291 291 284 283 284 282 280 280 282 286 287 286 284 285 290 293 298 301 298 291 288 288 288 291 293 297 300 304 312 319 324 328 330 333 337 340 343 346 347 350 353 352 352 350 347
171 253 250 109 314 285 279 293 267 202 234 272 275 261 227 216 219 225 242 231 211 246 259 267 278 278 272 270 271 278 284 286 286 288 291 297 303 305 303 298 291 291 293 286 283 285 282 279 279 282 287 289 285 282 285 289 292 297 298 293 287 285 286 286 289 291 294 298 303 312 319 323 327 330 333 338 341 344 346 348 351 354 354 354 352 350
168 268 353 57 346 278 275 333 327 292 281 279 281 276 237 200 207 218 224 200 193 224 254 270 275 267 269 279 280 279 285 286 282 285 291 296 301 302 299 297 293 293 292 286 282 283 281 280 282 286 290 288 281 280 285 288 291 296 296 290 284 283 283 285 288 289 291 296 303 311 319 323 326 329 333 337 341 344 346 348 351 354 355 356 354 352
158 159 37 53 309 270 285 334 322 323 330 295 269 248 200 191 214 237 242 216 201 199 219 243 249 259 280 302 300 292 293 289 283 286 292 296 299 301 299 297 296 294 290 284 281 281 281 283 287 290 290 286 279 279 285 288 291 296 296 290 284 281 281 284 286 289 291 295 301 309 317 322 325 328 332 337 342 345 346 348 351 354 356 357 356 354
142 133 173 175 197 272 297 331 336 333 313 265 237 180 175 202 213 219 244 242 216 195 214 246 262 283 292 288 284 284 285 288 290 291 292 294 296 297 297 297 296 294 289 283 280 280 282 284 288 290 288 283 278 279 283 287 292 297 295 289 283 279 280 283 285 288 291 294 300 308 315 320 324 327 331 337 342 345 346 348 351 354 357 358 357 356
124 122 177 170 171 271 312 5 352 299 243 255 270 225 216 223 200 208 250 263 245 217 230 258 271 272 272 272 274 278 281 288 294 293 293 297 296 291 291 294 295 292 288 285 281 279 281 283 285 288 288 282 277 278 284 287 293 297 293 287 283 278 279 282 284 286 290 293 298 306 313 318 322 325 330 337 342 345 346 348 351 354 357 359 358 356
135 138 166 172 183 273 342 32 298 269 277 292 308 316 209 132 144 216 275 274 259 225 213 242 258 260 265 272 279 285 288 293 295 293 296 303 300 288 285 292 297 294 290 290 286 279 279 282 284 287 287 281 277 279 285 288 292 297 296 290 285 280 279 281 282 284 288 291 297 304 310 316 319 323 330 337 342 345 346 348 351 354 356 359 359 355
142 139 181 267 204 210 293 256 265 305 315 308 310 159 161 133 150 176 267 277 273 250 212 225 253 262 264 274 288 297 301 303 298 295 303 314 311 297 290 294 300 297 292 293 288 278 276 278 281 285 286 283 280 281 286 289 291 296 299 295 289 283 280 280 282 284 287 289 293 300 307 313 317 322 330 336 341 345 346 348 351 353 355 358 359 356
136 143 174 208 248 104 88 299 311 340 312 276 265 256 223 169 157 133 124 283 285 278 249 226 239 262 267 282 297 307 315 318 300 295 310 322 318 307 299 298 300 297 292 291 286 278 276 277 280 284 284 284 284 283 284 287 290 295 298 297 293 286 281 280 281 283 285 288 291 297 303 309 315 321 328 335 340 345 346 348 351 353 354 357 357 357
75 57 107 140 284 5 108 254 259 248 260 263 262 260 167 143 135 96 39 289 275 279 263 225 231 262 276 292 300 309 327 322 291 294 311 320 318 310 302 298 299 297 291 288 286 282 279 277 278 279 282 287 288 283 282 285 288 292 296 298 297 291 284 281 281 282 284 286 289 294 299 306 313 320 326 333 339 344 346 348 351 353 354 355 356 357
50 27 71 177 250 229 151 218 247 240 256 262 268 277 250 171 127 67 345 283 260 275 274 245 263 284 294 301 304 303 264 267 280 299 309 313 311 308 304 299 298 297 292 288 287 284 279 275 276 279 284 291 288 280 279 281 285 288 291 295 297 293 287 283 280 281 283 284 287 292 297 303 311 318 324 332 337 342 345 347 351 352 353 354 354 356
77 16 163 179 225 204 180 237 273 263 255 259 269 277 156 144 98 52 271 274 294 313 310 302 299 302 305 304 300 284 276 283 290 299 306 308 307 308 307 301 296 295 293 288 284 282 278 276 278 281 284 286 282 277 277 278 282 286 287 290 295 296 292 285 279 279 282 283 285 289 293 301 309 315 322 330 336 340 343 346 350 352 353 354 352 353
204 177 158 162 198 196 183 215 278 287 268 241 176 120 128 133 187 242 258 293 310 314 313 310 307 307 308 304 297 292 295 300 300 302 306 308 308 310 310 304 295 294 294 289 283 282 280 278 279 280 282 282 278 277 277 276 279 283 284 287 293 298 297 288 280 279 279 280 282 286 291 298 305 312 320 327 333 338 341 344 348 350 353 354 350 351
184 173 236 213 178 158 81 87 283 286 256 172 138 115 136 181 257 279 296 308 308 309 312 310 308 310 310 307 304 303 303 305 306 307 309 311 311 313 313 307 299 298 298 292 286 284 282 279 279 280 279 278 275 275 275 274 276 280 282 286 291 295 296 291 283 279 279 278 279 283 288 295 302 309 317 324 331 336 338 341 346 348 352 354 349 352
188 181 232 241 183 143 141 189 212 247 194 158 166 253 255 256 281 295 304 306 305 308 312 310 310 313 313 309 309 308 306 307 309 310 312 313 315 316 315 309 303 302 303 297 290 286 280 277 278 279 277 273 272 273 273 272 274 277 280 285 287 288 292 291 284 279 278 278 278 279 284 291 299 305 312 320 327 333 335 339 343 346 351 352 349 354
209 195 204 246 217 183 214 237 247 272 276 246 244 271 283 289 297 301 301 300 303 310 314 312 311 314 315 313 311 309 308 310 312 312 313 315 317 317 317 312 307 306 305 299 289 284 279 276 276 276 273 271 271 272 272 271 272 277 282 284 281 282 287 287 282 277 275 276 277 277 279 285 293 300 307 314 322 328 332 336 340 345 349 348 347 355
228 217 202 258 243 251 269 263 259 271 280 277 275 285 294 301 308 312 309 306 308 313 315 313 311 313 316 317 313 311 311 313 314 314 314 315 317 318 319 317 313 311 308 299 290 285 279 274 272 271 271 271 271 271 271 270 271 277 282 281 278 280 284 284 281 276 270 271 273 274 276 281 287 295 301 306 314 323 328 333 338 344 347 347 346 352
252 229 213 240 276 300 279 270 266 274 281 286 294 300 304 312 318 319 317 314 315 317 316 315 316 316 317 318 315 313 313 315 315 315 316 317 317 318 320 320 318 316 311 302 295 288 278 270 268 270 271 272 272 271 271 270 271 275 278 278 277 278 280 280 280 275 268 266 268 269 272 277 282 290 298 302 310 319 326 331 336 340 345 346 345 350
275 224 199 229 246 241 270 282 292 296 292 294 301 309 319 326 323 320 321 320 319 319 318 318 319 318 318 321 321 318 316 318 320 320 320 321 320 318 318 318 317 316 313 306 297 287 278 272 270 271 272 273 273 271 270 268 269 270 273 276 277 277 276 278 278 274 266 262 262 264 267 271 275 283 291 298 305 314 320 326 331 335 341 344 346 351
219 257 223 239 276 272 277 288 300 304 301 303 319 331 330 326 322 322 326 326 326 326 324 324 325 324 325 327 329 326 322 322 326 326 323 322 322 320 318 317 314 312 310 307 300 290 281 276 273 271 272 273 272 270 267 266 266 266 269 274 276 275 276 276 275 272 266 260 258 258 259 262 266 271 276 282 291 302 311 317 322 327 335 341 348 353
176 263 269 42 301 286 285 298 311 314 301 307 323 328 326 325 327 329 330 332 335 336 336 334 335 338 342 343 342 337 331 329 333 332 327 325 327 326 323 319 315 311 309 307 302 293 285 279 275 272 272 273 271 267 266 265 263 263 266 270 272 274 275 274 271 269 265 259 255 254 253 255 258 262 265 268 273 284 298 306 310 315 326 336 346 353
212 244 229 212 254 263 278 290 296 294 291 307 318 323 327 334 337 336 336 340 343 346 347 345 345 350 356 360 1 356 346 342 343 339 332 330 332 332 329 326 320 314 309 306 300 294 288 283 277 273 273 273 271 268 267 265 263 262 263 266 269 271 273 271 269 266 264 259 255 252 249 249 251 256 261 266 267 275 288 299 304 308 317 331 343 348